User: anonymous   Login
Location: Columbus
(29.5618°N, 96.6770°W)
Time: 01:27:41
(UTC-06:00)
Language:

Cosmos 2056 Rocket - Orbit

View from above orbital plane
View from above orbital plane
View from above satellite
View from above satellite

Ground track
Ground track

The orbit data is extracted from the following two-line orbital elements,

1 20433U 90004B   18017.42958378 -.00000004  00000-0  76582-5 0  9996
2 20433  74.0376 322.8504 0040024  38.4766 100.2297 14.36013962465954
Epoch (UTC): 17 January 2018 10:18:36
Eccentricity: 0.0040024
inclination: 74.0376°
perigee height: 743 km
apogee height: 800 km
right ascension of ascending node: 322.8504°
argument of perigee: 38.4766°
revolutions per day: 14.36013962
mean anomaly at epoch: 100.2297°
orbit number at epoch: 46595

The dashed part of the orbit path shows where the satellite is in the earth's shadow,  

DLR